| time (UTC) | temp C | wind direction | speed KPH | gust KPH | rain 1hr cm | rain 24hr cm | rain mn cm | humidity % | barometer mb |
| 20260504080126 | 7 | 30 | 3.2 | 8.0 | 0.00 | 1.14 | 0.03 | 55 | 1010.0 |
| 20260504070145 | 8 | 40 | 6.4 | 20.9 | 0.03 | 1.14 | 0.03 | 56 | 1010.3 |
| 20260504060145 | 10 | 343 | 14.5 | 29.0 | 0.05 | 1.12 | 0.00 | 54 | 1010.0 |
| 20260504050122 | 11 | 14 | 22.5 | 62.8 | 0.15 | 1.07 | 1.07 | 44 | 1009.3 |
| 20260504045122 | 11 | 344 | 22.5 | 53.1 | 0.00 | 0.91 | 0.91 | 43 | 1009.1 |
| 20260504044122 | 11 | 0 | 25.7 | 53.1 | 0.08 | 0.91 | 0.91 | 43 | 1009.0 |
| 20260504043143 | 11 | 359 | 27.4 | 69.2 | 0.08 | 0.91 | 0.91 | 44 | 1008.8 |
| 20260504042122 | 11 | 355 | 27.4 | 67.6 | 0.08 | 0.91 | 0.91 | 42 | 1008.5 |
| 20260504041124 | 11 | 23 | 20.9 | 54.7 | 0.36 | 0.91 | 0.91 | 43 | 1008.3 |
| 20260504040124 | 11 | 47 | 19.3 | 49.9 | 0.36 | 0.91 | 0.91 | 41 | 1008.3 |
| 20260504035123 | 11 | 58 | 20.9 | 51.5 | 0.36 | 0.91 | 0.91 | 38 | 1008.1 |
| 20260504034122 | 12 | 70 | 19.3 | 40.2 | 0.28 | 0.84 | 0.84 | 36 | 1007.7 |
| 20260504033122 | 12 | 77 | 20.9 | 49.9 | 0.28 | 0.84 | 0.84 | 36 | 1007.5 |
| 20260504032122 | 12 | 67 | 22.5 | 51.5 | 0.28 | 0.84 | 0.84 | 36 | 1007.2 |
| 20260504031123 | 12 | 83 | 16.1 | 37.0 | 0.00 | 0.56 | 0.56 | 35 | 1007.1 |
| 20260504030122 | 12 | 118 | 17.7 | 48.3 | 0.00 | 0.56 | 0.56 | 35 | 1007.1 |
| 20260504025123 | 13 | 71 | 19.3 | 48.3 | 0.00 | 0.56 | 0.56 | 35 | 1006.6 |
| 20260504024122 | 13 | 63 | 16.1 | 48.3 | 0.00 | 0.56 | 0.56 | 35 | 1006.5 |
| 20260504023124 | 13 | 98 | 11.3 | 35.4 | 0.00 | 0.56 | 0.56 | 34 | 1006.3 |
| 20260504022125 | 13 | 87 | 11.3 | 30.6 | 0.05 | 0.56 | 0.56 | 33 | 1006.3 |
| 20260504021123 | 14 | 90 | 14.5 | 35.4 | 0.10 | 0.56 | 0.56 | 33 | 1006.1 |
| 20260504020122 | 15 | 90 | 19.3 | 45.1 | 0.10 | 0.56 | 0.56 | 33 | 1006.1 |
| 20260504015122 | 15 | 65 | 20.9 | 48.3 | 0.10 | 0.56 | 0.56 | 32 | 1005.7 |
| 20260504014143 | 15 | 82 | 22.5 | 49.9 | 0.10 | 0.56 | 0.56 | 32 | 1005.4 |
| 20260504013122 | 15 | 90 | 20.9 | 51.5 | 0.10 | 0.56 | 0.56 | 31 | 1005.2 |
| 20260504012144 | 16 | 73 | 25.7 | 51.5 | 0.05 | 0.51 | 0.51 | 31 | 1004.9 |
| 20260504011123 | 17 | 65 | 19.3 | 41.8 | 0.00 | 0.46 | 0.46 | 31 | 1004.7 |
| 20260504010149 | 17 | 83 | 22.5 | 53.1 | 0.00 | 0.46 | 0.46 | 30 | 1004.7 |
| 20260504010143 | 17 | 81 | 22.5 | 53.1 | 0.00 | 0.46 | 0.46 | 30 | 1004.7 |
| 20260504005122 | 17 | 69 | 19.3 | 45.1 | 0.00 | 0.46 | 0.46 | 30 | 1004.7 |
| 20260504004122 | 17 | 54 | 20.9 | 46.7 | 0.00 | 0.46 | 0.46 | 30 | 1004.6 |
| 20260504003123 | 18 | 76 | 20.9 | 46.7 | 0.00 | 0.46 | 0.46 | 30 | 1004.5 |
| 20260504002122 | 18 | 2 | 20.9 | 51.5 | 0.00 | 0.46 | 0.46 | 29 | 1004.3 |
| 20260504001122 | 18 | 24 | 22.5 | 51.5 | 0.15 | 0.46 | 0.46 | 30 | 1004.2 |
| 20260504000122 | 19 | 12 | 24.1 | 64.4 | 0.18 | 0.46 | 0.46 | 29 | 1004.2 |
| 20260503235122 | 18 | 360 | 24.1 | 53.1 | 0.18 | 0.46 | 0.46 | 30 | 1004.1 |
| 20260503234122 | 18 | 47 | 24.1 | 64.4 | 0.18 | 0.46 | 0.46 | 30 | 1004.1 |
| 20260503233122 | 18 | 11 | 24.1 | 56.3 | 0.18 | 0.46 | 0.46 | 30 | 1004.0 |
| 20260503232122 | 18 | 22 | 24.1 | 57.9 | 0.18 | 0.46 | 0.46 | 29 | 1004.0 |
| 20260503231144 | 18 | 50 | 24.1 | 59.5 | 0.25 | 0.30 | 0.30 | 30 | 1004.0 |
| 20260503230123 | 19 | 67 | 22.5 | 53.1 | 0.28 | 0.28 | 0.28 | 28 | 1004.0 |
| 20260503225126 | 19 | 11 | 25.7 | 53.1 | 0.28 | 0.28 | 0.28 | 28 | 1004.0 |
| 20260503224122 | 19 | 7 | 24.1 | 59.5 | 0.28 | 0.28 | 0.28 | 29 | 1004.0 |
| 20260503223122 | 20 | 7 | 24.1 | 56.3 | 0.28 | 0.28 | 0.28 | 27 | 1003.9 |
| 20260503222122 | 20 | 87 | 24.1 | 51.5 | 0.28 | 0.28 | 0.28 | 26 | 1004.0 |
| 20260503221123 | 21 | 63 | 24.1 | 57.9 | 0.05 | 0.05 | 0.05 | 25 | 1003.9 |
| 20260503220122 | 22 | 74 | 20.9 | 51.5 | 0.00 | 0.00 | 0.00 | 24 | 1003.9 |
| 20260503215143 | 22 | 64 | 19.3 | 61.2 | 0.00 | 0.00 | 0.00 | 23 | 1003.9 |
| 20260503214143 | 22 | 61 | 17.7 | 51.5 | 0.00 | 0.00 | 0.00 | 23 | 1004.0 |
| 20260503213122 | 22 | 89 | 14.5 | 37.0 | 0.00 | 0.00 | 0.00 | 23 | 1004.0 |
| 20260503212122 | 22 | 28 | 17.7 | 43.5 | 0.00 | 0.00 | 0.00 | 23 | 1004.2 |
| 20260503211122 | 20 | 353 | 19.3 | 45.1 | 0.00 | 0.00 | 0.00 | 24 | 1004.3 |
| 20260503210122 | 22 | 62 | 14.5 | 32.2 | 0.00 | 0.00 | 0.00 | 22 | 1004.3 |
| 20260503205122 | 21 | 350 | 14.5 | 37.0 | 0.00 | 0.00 | 0.00 | 23 | 1004.4 |
| 20260503204122 | 20 | 68 | 12.9 | 30.6 | 0.00 | 0.00 | 0.00 | 24 | 1004.5 |
| 20260503203122 | 21 | 359 | 16.1 | 56.3 | 0.00 | 0.00 | 0.00 | 24 | 1004.6 |
| 20260503202122 | 20 | 355 | 19.3 | 46.7 | 0.00 | 0.00 | 0.00 | 24 | 1004.7 |
| 20260503201122 | 20 | 351 | 19.3 | 56.3 | 0.00 | 0.00 | 0.00 | 25 | 1004.9 |
| 20260503200122 | 21 | 30 | 17.7 | 41.8 | 0.00 | 0.00 | 0.00 | 24 | 1004.9 |
| 20260503195122 | 20 | 21 | 17.7 | 45.1 | 0.00 | 0.00 | 0.00 | 24 | 1005.0 |
| 20260503194143 | 20 | 33 | 16.1 | 45.1 | 0.00 | 0.00 | 0.00 | 25 | 1005.1 |
| 20260503193122 | 19 | 335 | 17.7 | 48.3 | 0.00 | 0.00 | 0.00 | 26 | 1005.4 |
| 20260503192123 | 19 | 348 | 19.3 | 51.5 | 0.00 | 0.00 | 0.00 | 27 | 1005.3 |
| 20260503191123 | 20 | 36 | 12.9 | 35.4 | 0.00 | 0.00 | 0.00 | 26 | 1005.5 |
| 20260503190123 | 20 | 342 | 16.1 | 45.1 | 0.00 | 0.00 | 0.00 | 25 | 1005.5 |
| 20260503185124 | 18 | 343 | 16.1 | 40.2 | 0.00 | 0.00 | 0.00 | 26 | 1005.5 |
| 20260503184124 | 18 | 341 | 22.5 | 46.7 | 0.00 | 0.00 | 0.00 | 26 | 1005.8 |
| 20260503183124 | 18 | 338 | 20.9 | 57.9 | 0.00 | 0.00 | 0.00 | 26 | 1005.9 |
| 20260503182124 | 18 | 329 | 20.9 | 46.7 | 0.00 | 0.00 | 0.00 | 26 | 1005.9 |
| 20260503181145 | 18 | 3 | 17.7 | 53.1 | 0.00 | 0.00 | 0.00 | 27 | 1006.0 |
| 20260503180124 | 18 | 337 | 24.1 | 61.2 | 0.00 | 0.00 | 0.00 | 28 | 1006.0 |
| 20260503175124 | 17 | 339 | 20.9 | 56.3 | 0.00 | 0.00 | 0.00 | 27 | 1006.1 |
| 20260503174124 | 18 | 53 | 19.3 | 48.3 | 0.00 | 0.00 | 0.00 | 27 | 1006.3 |
| 20260503173123 | 18 | 9 | 22.5 | 59.5 | 0.00 | 0.00 | 0.00 | 26 | 1006.4 |
| 20260503172124 | 17 | 320 | 29.0 | 62.8 | 0.00 | 0.00 | 0.00 | 28 | 1006.4 |
| 20260503171124 | 18 | 327 | 30.6 | 61.2 | 0.00 | 0.00 | 0.00 | 26 | 1006.5 |
| 20260503170124 | 18 | 326 | 24.1 | 53.1 | 0.00 | 0.00 | 0.00 | 25 | 1006.5 |
| 20260503160122 | 16 | 292 | 16.1 | 38.6 | 0.00 | 0.00 | 0.00 | 29 | 1006.9 |
| 20260503150123 | 13 | 309 | 12.9 | 32.2 | 0.00 | 0.00 | 0.00 | 37 | 1007.2 |
| 20260503140123 | 11 | 273 | 8.0 | 27.4 | 0.00 | 0.00 | 0.00 | 38 | 1007.3 |
| 20260503131123 | 8 | 272 | 11.3 | 22.5 | 0.00 | 0.00 | 0.00 | 41 | 1007.2 |
| 20260503130122 | 8 | 277 | 12.9 | 24.1 | 0.00 | 0.00 | 0.00 | 42 | 1007.2 |
| 20260503120122 | 8 | 279 | 17.7 | 35.4 | 0.00 | 0.00 | 0.00 | 40 | 1007.3 |
| 20260503110123 | 8 | 271 | 16.1 | 32.2 | 0.00 | 0.00 | 0.00 | 39 | 1007.6 |
| 20260503100123 | 8 | 285 | 16.1 | 32.2 | 0.00 | 0.00 | 0.00 | 38 | 1007.8 |
| 20260503090123 | 9 | 268 | 12.9 | 24.1 | 0.00 | 0.00 | 0.00 | 35 | 1007.7 |
| 20260503081122 | 9 | 291 | 14.5 | 30.6 | 0.00 | 0.00 | 0.00 | 36 | 1007.7 |